Temp
-6 -6 -6 -6 -6 -6 -6 -6 -6 -6 -6 -6 -6 -6 -6 -6 -6 -6 -6 -6 -6 -6 -6 -6 -6 -7 -7 -7 -7 -7 -6 -6 -6 -6 -6 -6 -6 -6 -6 -6 -6 -7
-5 -5 -6 -6 -6 -6 -6 -6 -6 -6 -6 -6 -6 -6 -6 -6 -6 -6 -6 -6 -6 -6 -6 -6 -6 -6 -7 -7 -7 -7 -6 -6 -6 -6 -6 -6 -6 -6 -6 -6 -6 -6
-6 -5 -5 -6 -6 -6 -6 -6 -6 -5 -6 -6 -6 -6 -6 -6 -6 -6 -6 -6 -6 -6 -6 -6 -6 -6 -7 -7 -6 -7 -6 -6 -6 -6 -6 -6 -6 -6 -6 -6 -6 -6
-6 -5 -5 -5 -6 -6 -6 -5 -5 -5 -5 -5 -5 -6 -6 -6 -6 -6 -6 -6 -6 -6 -6 -6 -6 -6 -6 -6 -6 -6 -6 -6 -6 -6 -6 -6 -6 -6 -6 -6 -6 -6
-6 -5 -5 -5 -6 -6 -6 -6 -5 -5 -5 -5 -5 -5 -6 -6 -6 -6 -6 -6 -6 -6 -6 -6 -6 -6 -6 -6 -6 -6 -6 -6 -6 -6 -6 -6 -6 -6 -6 -6 -6 -6
-6 -6 -6 -6 -6 -6 -6 -6 -5 -5 -5 -5 -5 -5 -5 -6 -6 -6 -6 -6 -6 -6 -6 -6 -6 -6 -6 -6 -6 -6 -6 -6 -6 -6 -6 -6 -6 -6 -6 -6 -6 -6
-6 -6 -6 -6 -6 -6 -6 -6 -6 -5 -5 -5 -5 -5 -5 -5 -5 -6 -6 -6 -6 -6 -6 -5 -5 -5 -5 -6 -6 -6 -6 -6 -6 -6 -6 -6 -6 -6 -6 -6 -6 -6
-6 -6 -6 -6 -6 -6 -6 -6 -6 -6 -5 -5 -5 -5 -5 -5 -5 -5 -6 -6 -6 -6 -6 -6 -5 -5 -5 -5 -6 -6 -6 -6 -6 -6 -6 -6 -6 -6 -6 -6 -6 -6
-6 -6 -6 -6 -6 -6 -6 -6 -6 -6 -6 -6 -5 -5 -5 -5 -5 -5 -5 -5 -5 -5 -6 -6 -6 -5 -5 -5 -5 -5 -5 -6 -6 -6 -6 -6 -6 -6 -6 -6 -6 -6
-6 -6 -6 -6 -6 -6 -6 -6 -6 -6 -6 -6 -6 -5 -5 -5 -5 -5 -5 -5 -5 -5 -5 -5 -5 -5 -5 -5 -5 -5 -6 -6 -6 -6 -6 -6 -6 -6 -6 -6 -6 -6
-6 -6 -6 -6 -6 -6 -6 -6 -6 -6 -6 -6 -6 -6 -6 -5 -5 -5 -5 -5 -5 -5 -5 -5 -5 -5 -5 -5 -5 -5 -5 -5 -6 -6 -6 -6 -6 -6 -5 -6 -6 -6
-6 -6 -6 -6 -6 -6 -6 -6 -6 -6 -6 -6 -6 -6 -6 -6 -6 -6 -6 -6 -5 -5 -5 -5 -5 -5 -5 -5 -5 -5 -5 -5 -5 -5 -6 -6 -6 -5 -5 -5 -5 -5
-7 -7 -6 -6 -6 -6 -6 -6 -6 -6 -6 -6 -6 -6 -6 -6 -6 -6 -6 -6 -5 -5 -5 -5 -5 -5 -5 -5 -5 -5 -5 -5 -5 -5 -5 -6 -6 -6 -6 -6 -5 -5
-7 -7 -7 -6 -6 -6 -6 -6 -6 -6 -6 -6 -6 -6 -6 -6 -6 -6 -6 -5 -5 -5 -5 -5 -5 -5 -5 -5 -5 -5 -5 -5 -5 -5 -5 -5 -6 -6 -6 -6 -6 -6
-6 -7 -7 -7 -6 -6 -6 -6 -6 -6 -6 -6 -6 -6 -6 -6 -6 -6 -5 -5 -5 -5 -5 -6 -6 -6 -5 -5 -5 -5 -5 -5 -5 -5 -5 -5 -5 -5 -6 -6 -6 -6
-7 -7 -7 -7 -7 -7 -6 -6 -6 -6 -6 -6 -6 -6 -6 -6 -6 -6 -6 -6 -5 -5 -5 -5 -6 -6 -6 -5 -5 -5 -5 -5 -5 -5 -5 -5 -5 -5 -5 -6 -6 -6
-6 -6 -6 -7 -7 -7 -7 -6 -6 -6 -6 -6 -6 -6 -6 -6 -6 -6 -6 -6 -6 -6 -5 -5 -5 -5 -5 -6 -5 -5 -5 -5 -5 -5 -5 -5 -5 -5 -5 -5 -5 -6
-6 -6 -6 -6 -7 -7 -7 -7 -6 -6 -6 -6 -6 -6 -6 -5 -5 -6 -6 -6 -6 -6 -6 -6 -5 -5 -5 -5 -5 -5 -5 -5 -5 -5 -5 -5 -5 -5 -5 -5 -5 -5
-6 -6 -6 -6 -6 -6 -7 -7 -7 -6 -6 -6 -6 -6 -6 -5 -6 -6 -6 -6 -6 -6 -6 -6 -6 -5 -5 -5 -5 -5 -5 -5 -5 -5 -5 -5 -5 -5 -5 -5 -5 -5
-7 -7 -7 -7 -6 -6 -6 -6 -7 -7 -6 -6 -6 -6 -6 -6 -6 -6 -6 -6 -6 -6 -6 -6 -6 -6 -6 -5 -5 -5 -5 -5 -5 -5 -5 -5 -5 -6 -6 -6 -6 -6
-7 -7 -7 -7 -7 -6 -6 -6 -6 -7 -6 -7 -7 -6 -6 -6 -6 -6 -6 -6 -6 -6 -6 -6 -6 -6 -6 -6 -6 -6 -5 -5 -5 -5 -5 -5 -5 -6 -6 -6 -6 -6
-7 -7 -7 -7 -7 -6 -6 -6 -7 -7 -7 -7 -7 -7 -7 -6 -6 -6 -6 -6 -6 -6 -6 -6 -6 -6 -6 -6 -6 -6 -6 -6 -6 -6 -6 -6 -6 -6 -6 -6 -6 -6
-7 -7 -7 -7 -7 -7 -7 -7 -7 -7 -7 -7 -7 -7 -7 -7 -6 -6 -6 -6 -6 -6 -6 -6 -6 -6 -6 -6 -6 -6 -6 -6 -6 -6 -6 -6 -6 -6 -6 -6 -6 -6
-7 -7 -7 -7 -7 -7 -7 -7 -7 -7 -7 -7 -7 -7 -7 -7 -7 -7 -7 -6 -6 -6 -7 -7 -7 -6 -6 -6 -6 -6 -6 -6 -6 -6 -6 -6 -6 -6 -6 -6 -6 -6
-8 -7 -7 -7 -8 -7 -7 -7 -8 -7 -7 -7 -7 -7 -7 -7 -7 -7 -7 -7 -7 -7 -7 -7 -7 -7 -7 -6 -6 -6 -6 -6 -6 -6 -6 -6 -6 -6 -6 -6 -6 -6
-8 -8 -7 -7 -8 -8 -8 -8 -8 -8 -8 -8 -7 -7 -8 -7 -7 -7 -7 -7 -7 -7 -7 -7 -7 -7 -7 -7 -7 -6 -6 -6 -6 -6 -6 -6 -6 -6 -6 -6 -6 -6
Height
5942 5944 5945 5946 5947 5948 5949 5950 5950 5950 5951 5951 5951 5951 5952 5952 5952 5952 5953 5954 5954 5955 5956 5957 5957 5957 5957 5957 5957 5957 5958 5958 5959 5959 5959 5959 5959 5960 5960 5961 5961 5961
5941 5942 5944 5945 5946 5947 5948 5949 5949 5950 5950 5950 5951 5951 5951 5952 5952 5952 5952 5953 5953 5954 5955 5956 5957 5957 5957 5957 5957 5958 5958 5958 5959 5959 5959 5959 5959 5960 5960 5961 5961 5962
5940 5941 5942 5943 5944 5945 5946 5947 5948 5948 5949 5949 5949 5950 5950 5951 5951 5952 5952 5952 5952 5953 5954 5955 5956 5956 5957 5957 5958 5958 5958 5958 5958 5959 5959 5959 5959 5960 5960 5961 5961 5962
5938 5939 5940 5942 5943 5944 5945 5945 5946 5947 5947 5948 5948 5949 5949 5950 5951 5951 5952 5952 5952 5953 5954 5954 5955 5956 5956 5957 5957 5957 5958 5958 5958 5958 5958 5959 5959 5959 5960 5960 5961 5961
5936 5937 5939 5940 5941 5942 5943 5944 5944 5945 5946 5947 5947 5948 5948 5949 5950 5951 5952 5952 5952 5952 5953 5954 5954 5955 5956 5956 5957 5957 5957 5958 5958 5958 5958 5958 5958 5959 5959 5960 5960 5960
5934 5936 5937 5939 5940 5941 5942 5942 5943 5944 5945 5946 5947 5947 5948 5948 5949 5950 5951 5952 5952 5953 5953 5954 5954 5955 5956 5956 5957 5957 5957 5958 5958 5958 5958 5958 5958 5958 5959 5959 5959 5959
5932 5933 5935 5937 5938 5940 5940 5942 5942 5943 5944 5944 5945 5946 5947 5948 5948 5949 5950 5951 5952 5952 5953 5954 5954 5955 5955 5956 5956 5957 5957 5957 5958 5958 5958 5958 5958 5958 5958 5959 5959 5959
5929 5931 5932 5934 5936 5938 5939 5940 5941 5942 5943 5943 5944 5945 5946 5947 5947 5948 5949 5950 5951 5951 5952 5953 5953 5954 5955 5956 5957 5957 5957 5957 5958 5958 5958 5958 5958 5958 5958 5958 5959 5959
5927 5929 5930 5932 5933 5935 5936 5938 5939 5941 5942 5942 5943 5944 5945 5946 5947 5947 5948 5949 5950 5950 5951 5951 5952 5953 5954 5955 5956 5957 5957 5958 5958 5958 5958 5958 5958 5958 5958 5958 5958 5958
5926 5928 5929 5930 5931 5932 5934 5935 5937 5939 5940 5941 5942 5943 5944 5945 5946 5947 5947 5948 5949 5949 5950 5950 5950 5951 5952 5953 5954 5956 5956 5957 5958 5958 5958 5958 5958 5958 5958 5958 5958 5958
5924 5926 5927 5928 5929 5930 5931 5933 5935 5937 5938 5939 5940 5941 5942 5943 5944 5945 5946 5947 5948 5948 5949 5949 5950 5949 5950 5951 5952 5953 5954 5955 5956 5957 5957 5958 5958 5958 5958 5958 5958 5958
5922 5923 5924 5925 5926 5927 5928 5930 5932 5934 5935 5936 5937 5938 5940 5941 5942 5943 5944 5945 5946 5947 5948 5949 5949 5949 5949 5949 5950 5951 5952 5953 5954 5955 5956 5956 5957 5957 5957 5957 5957 5958
5918 5919 5920 5921 5922 5923 5925 5927 5929 5932 5933 5934 5934 5935 5937 5938 5939 5940 5941 5943 5944 5945 5946 5947 5948 5949 5949 5949 5949 5949 5950 5951 5952 5953 5954 5954 5955 5956 5956 5956 5956 5957
5913 5914 5915 5917 5918 5920 5921 5923 5926 5929 5931 5932 5933 5934 5934 5935 5937 5938 5939 5940 5942 5943 5944 5945 5946 5947 5948 5948 5948 5948 5949 5950 5951 5951 5952 5953 5953 5954 5954 5955 5955 5955
5910 5912 5913 5914 5916 5917 5918 5920 5923 5925 5928 5930 5932 5933 5933 5933 5934 5936 5937 5939 5940 5941 5942 5943 5944 5945 5946 5946 5946 5946 5947 5948 5949 5950 5951 5951 5952 5952 5953 5953 5953 5953
5910 5912 5912 5913 5915 5916 5917 5918 5920 5922 5925 5927 5929 5930 5931 5932 5932 5933 5935 5937 5938 5940 5940 5941 5941 5942 5943 5944 5945 5945 5945 5946 5947 5948 5948 5949 5950 5951 5951 5951 5951 5951
5906 5908 5910 5912 5914 5915 5916 5917 5917 5919 5921 5923 5925 5927 5928 5929 5930 5931 5932 5934 5936 5938 5939 5940 5939 5939 5940 5941 5942 5943 5944 5944 5945 5945 5946 5947 5948 5949 5949 5950 5950 5950
5901 5903 5905 5907 5910 5912 5915 5916 5916 5917 5918 5920 5922 5923 5925 5926 5927 5928 5929 5930 5932 5935 5937 5938 5938 5938 5938 5939 5940 5941 5942 5942 5943 5943 5944 5945 5946 5947 5948 5948 5949 5949
5898 5899 5901 5903 5905 5908 5911 5913 5914 5914 5915 5917 5918 5919 5921 5923 5925 5925 5926 5927 5929 5931 5933 5935 5936 5937 5937 5938 5938 5939 5939 5940 5941 5941 5942 5943 5944 5945 5946 5946 5947 5948
5895 5897 5898 5899 5901 5903 5905 5907 5909 5910 5911 5912 5913 5915 5917 5920 5921 5923 5923 5924 5926 5928 5930 5933 5934 5935 5935 5936 5937 5937 5937 5937 5938 5939 5940 5941 5942 5943 5943 5944 5945 5945
5893 5894 5895 5897 5898 5899 5901 5902 5903 5904 5906 5907 5908 5910 5913 5915 5917 5918 5919 5920 5922 5924 5927 5930 5932 5933 5933 5933 5933 5934 5934 5935 5935 5936 5936 5937 5938 5939 5940 5941 5941 5942
5891 5892 5893 5894 5895 5896 5897 5898 5898 5900 5902 5904 5906 5908 5910 5911 5913 5914 5915 5916 5918 5920 5923 5926 5928 5930 5930 5930 5930 5930 5930 5931 5932 5932 5933 5934 5934 5935 5936 5937 5938 5939
5889 5890 5891 5892 5893 5894 5894 5894 5896 5898 5901 5903 5905 5907 5908 5910 5911 5912 5913 5914 5916 5917 5919 5921 5924 5925 5926 5927 5927 5927 5927 5927 5928 5929 5929 5930 5931 5931 5932 5934 5935 5935
5887 5889 5890 5890 5891 5892 5893 5893 5894 5896 5897 5899 5902 5904 5905 5907 5908 5909 5911 5912 5914 5916 5917 5918 5920 5921 5921 5922 5923 5923 5923 5924 5925 5925 5926 5927 5927 5928 5929 5930 5931 5931
5885 5886 5888 5888 5889 5890 5891 5891 5892 5893 5894 5896 5898 5900 5901 5903 5903 5905 5907 5909 5911 5913 5914 5915 5916 5916 5917 5918 5919 5919 5920 5921 5922 5923 5923 5924 5924 5925 5925 5926 5927 5928
5881 5883 5884 5886 5887 5888 5889 5890 5891 5892 5893 5894 5895 5896 5898 5899 5900 5901 5903 5905 5907 5909 5911 5911 5912 5912 5913 5914 5915 5916 5916 5917 5918 5920 5921 5921 5921 5922 5922 5923 5923 5924
Wind_Speed
17 17 16 16 16 16 16 16 16 15 14 13 12 12 12 12 13 13 13 12 12 10 10 9 9 9 8 8 8 8 7 7 6 6 6 7 7 7 7 8 8 8
17 17 17 17 17 17 16 16 16 16 15 14 13 13 12 12 13 13 14 13 12 11 10 9 9 8 8 8 7 7 7 7 7 6 6 7 7 7 7 7 7 6
18 17 17 18 18 17 17 17 17 16 16 15 14 13 13 12 12 13 14 14 13 12 11 10 9 9 8 8 7 7 7 7 7 6 6 7 7 7 7 7 7 7
19 19 18 18 18 17 17 17 17 17 16 16 15 14 13 13 12 13 14 14 14 13 12 11 10 9 9 8 8 8 7 7 7 7 7 7 7 8 8 8 8 8
21 20 19 18 18 18 18 18 18 17 17 16 15 15 14 13 13 13 13 13 14 13 13 13 12 11 10 9 9 8 7 7 7 7 7 8 8 8 8 8 9 9
22 21 19 18 18 18 18 18 18 18 17 17 16 15 15 14 13 13 13 13 13 13 13 13 13 12 11 11 10 9 8 8 7 8 8 8 8 8 9 9 9 10
22 22 21 20 18 18 18 17 17 17 17 17 17 16 16 15 15 14 13 13 13 14 13 13 13 12 12 12 11 11 10 9 8 8 8 7 7 8 8 9 10 10
23 24 23 22 20 19 18 17 17 17 17 17 17 17 17 16 16 15 14 13 13 14 14 13 13 13 13 13 12 11 11 10 10 9 8 8 7 7 8 9 10 10
23 23 23 23 23 21 19 18 18 17 18 18 18 17 17 17 17 16 16 15 14 14 15 14 14 14 14 13 13 12 11 11 11 11 10 9 9 8 8 9 9 10
22 21 22 23 24 24 22 21 19 18 18 19 18 18 17 17 17 17 17 16 15 15 16 15 15 15 14 14 14 13 13 13 12 12 12 11 11 10 10 9 9 10
21 21 21 22 24 26 25 24 21 20 19 19 19 18 18 17 16 17 18 18 17 16 16 16 16 16 15 15 15 15 15 15 14 14 13 13 13 12 12 11 10 10
22 22 22 23 25 27 27 26 24 22 21 21 20 19 19 18 17 17 18 18 18 18 17 17 17 16 16 16 16 16 16 17 16 16 15 15 15 14 14 13 13 12
25 24 25 25 26 27 29 29 27 25 24 23 23 23 21 20 20 20 19 20 19 19 19 18 17 17 17 17 17 17 17 18 18 18 17 17 17 16 16 16 16 15
29 28 28 28 27 26 28 29 29 27 25 25 24 24 23 22 22 22 22 21 21 21 21 20 19 18 18 18 18 18 18 18 18 19 19 19 18 18 18 18 19 18
32 31 31 30 28 26 26 28 30 30 28 26 24 24 24 24 23 22 22 22 23 23 23 22 21 20 20 20 20 19 19 19 19 19 19 20 20 20 20 21 21 21
34 32 32 31 29 28 26 26 29 31 30 28 27 26 26 25 24 23 22 22 23 24 25 24 23 23 22 22 22 21 21 21 20 20 20 21 21 22 22 23 23 23
35 35 33 31 29 29 27 26 27 30 31 31 30 29 28 27 26 25 24 23 24 24 25 26 26 26 25 24 23 23 22 22 22 22 21 21 22 22 23 23 24 24
34 35 33 30 28 29 29 28 26 27 30 31 32 31 30 29 28 27 26 25 24 25 25 26 27 28 27 26 25 24 23 23 23 23 23 22 23 23 23 24 24 24
29 31 31 29 29 29 29 28 27 27 29 31 32 33 32 31 30 29 27 26 25 26 26 26 27 28 28 27 27 26 25 25 24 24 23 23 23 23 24 24 24 25
25 27 28 28 28 28 29 29 29 30 31 32 33 33 33 32 32 30 29 27 27 27 27 28 27 27 27 27 27 27 27 26 26 25 24 24 24 25 25 25 25 26
20 22 25 27 28 29 29 30 31 33 34 35 34 33 33 33 33 31 30 29 29 28 28 28 28 28 27 26 26 27 28 27 27 26 26 26 26 27 27 27 28 28
15 16 17 20 25 28 30 33 34 33 34 35 34 32 32 32 32 32 32 31 30 30 30 30 29 29 28 27 27 28 28 28 28 28 27 27 27 28 29 29 29 29
16 15 15 15 17 21 26 30 31 31 31 32 32 31 31 30 29 29 30 31 31 30 31 31 30 30 30 30 29 29 29 29 29 29 28 28 29 29 30 30 30 30
22 20 19 16 14 15 18 20 23 27 29 28 28 29 29 29 28 27 28 29 31 31 32 32 32 32 33 33 32 32 31 31 30 30 30 29 30 30 31 31 31 32
27 25 24 22 18 17 17 15 16 21 26 26 26 26 26 27 28 28 28 29 31 32 33 33 34 34 34 35 35 35 34 34 33 32 31 31 31 31 31 32 32 33
29 28 28 26 24 23 22 19 17 18 20 22 23 24 24 23 24 25 25 26 28 31 33 34 35 36 36 35 35 35 36 36 35 34 33 34 34 33 33 33 34 34
Wind_Direction
204 202 199 196 194 192 188 186 188 189 192 191 189 187 182 178 174 172 170 169 166 166 166 166 168 169 170 171 169 170 171 173 171 170 169 166 166 166 165 165 165 166
210 207 202 199 198 197 194 192 193 194 195 195 194 192 190 186 181 176 174 172 169 168 169 171 172 170 171 173 174 176 176 175 176 175 175 175 176 176 173 172 173 176
214 213 209 205 202 200 198 198 199 199 200 201 199 196 195 193 188 183 180 175 172 173 173 174 177 175 174 177 179 183 183 180 179 179 180 181 181 182 180 179 180 183
216 216 215 211 207 205 203 202 203 204 205 206 205 202 200 199 197 192 187 182 178 178 177 178 181 181 180 182 182 183 185 183 182 185 188 187 187 189 188 185 185 187
219 219 220 217 212 210 209 208 208 208 209 210 210 209 206 204 204 200 196 192 187 184 183 182 185 187 187 188 187 186 186 185 185 189 195 195 194 195 196 195 195 197
220 220 222 222 219 216 216 214 213 213 213 214 214 215 213 210 210 208 205 202 199 196 192 188 189 191 192 193 193 192 191 189 188 191 194 199 201 200 202 205 207 209
219 218 219 221 222 222 222 222 220 218 217 217 217 218 219 217 215 213 212 210 208 206 203 198 197 197 196 196 197 197 195 193 193 192 192 197 202 203 207 212 214 216
218 217 215 216 218 221 224 226 226 224 222 221 220 220 221 222 220 218 216 215 215 212 209 206 205 205 202 201 201 201 200 197 196 196 195 198 202 205 208 213 217 219
221 219 216 214 214 217 220 223 226 227 226 224 223 222 223 224 225 225 223 220 218 217 214 210 208 209 208 207 207 208 208 206 204 202 200 200 203 205 206 209 215 220
224 223 221 218 215 215 216 218 221 224 226 226 224 222 223 225 227 228 229 227 224 221 219 215 211 210 211 211 212 213 215 217 216 214 211 208 207 207 207 206 211 216
223 222 222 220 219 217 216 217 218 219 222 225 225 223 222 223 226 228 230 231 230 228 226 222 218 214 213 213 215 217 219 222 223 223 222 220 218 216 215 214 215 216
223 221 219 219 219 218 216 216 217 217 217 219 220 221 220 219 222 226 228 230 231 231 231 230 227 224 220 218 218 219 221 223 225 226 227 227 226 225 224 225 225 224
224 222 219 218 218 217 216 216 216 217 218 218 217 216 216 216 217 220 223 226 228 229 230 231 232 232 229 226 226 225 225 226 227 228 229 230 231 232 231 231 231 231
222 220 220 218 217 216 215 214 215 217 219 221 221 218 216 216 218 219 221 222 224 226 228 229 231 233 234 233 232 233 233 233 233 233 233 234 233 234 234 235 234 234
226 224 223 220 218 217 215 214 214 216 218 220 223 224 222 220 220 222 225 225 225 225 225 225 228 231 234 234 235 235 236 238 238 239 239 238 237 236 236 236 236 236
232 231 228 223 219 216 215 214 214 215 218 219 220 224 226 224 222 223 226 229 231 231 228 225 225 227 231 234 235 236 236 237 239 240 242 242 241 240 239 239 239 238
233 233 231 228 224 219 217 216 215 215 218 220 220 221 225 226 224 222 224 228 233 235 235 232 229 227 227 229 233 237 239 240 240 241 243 244 244 244 244 244 244 244
228 226 225 225 226 224 221 220 220 219 220 222 223 223 224 226 226 224 224 226 230 235 238 238 237 235 232 230 230 234 238 241 243 245 246 246 247 248 248 248 249 249
224 223 223 223 223 223 223 223 224 224 223 223 224 224 225 226 228 228 227 227 230 234 237 238 238 239 240 238 235 234 235 238 241 245 249 251 252 253 253 253 253 252
228 228 227 226 224 223 224 225 226 227 225 223 223 224 225 226 227 229 230 230 232 235 238 240 240 240 240 242 242 241 239 238 239 242 245 249 252 253 254 255 255 254
233 233 231 231 231 230 230 230 228 227 227 225 223 223 225 225 225 226 228 230 232 235 238 241 243 243 242 240 241 242 242 241 241 242 243 245 247 250 251 253 254 254
233 233 234 234 236 236 236 234 231 229 230 231 229 228 228 227 226 226 227 228 231 234 237 239 241 243 245 244 242 241 241 240 240 240 242 243 246 248 250 251 254 255
240 239 240 238 239 240 239 239 237 234 236 236 234 232 232 232 232 232 232 232 233 234 236 239 240 242 244 245 244 244 243 242 241 240 239 240 242 245 248 250 252 254
248 249 247 244 246 246 244 246 244 238 234 233 230 230 231 231 233 236 238 239 238 235 235 237 240 243 246 246 246 246 245 244 243 242 240 239 240 242 245 248 251 253
251 251 251 250 254 254 251 255 250 236 230 227 227 227 228 228 230 233 236 238 239 237 236 237 239 242 246 248 250 251 251 249 247 245 244 243 243 244 245 247 249 252
255 254 254 254 256 257 255 256 254 246 237 232 230 229 227 226 226 226 227 231 235 236 237 238 240 242 245 246 249 252 255 256 255 253 250 248 247 248 249 250 251 252